User: anonymous   Login
Location: Rostock
(54.0884°N, 12.1234°E)
Time: 12:08:56
(UTC+01:00)
Language:

ISS - Orbit

View from above orbital plane
View from above orbital plane
View from above satellite
View from above satellite

Ground track
Ground track

The orbit data is extracted from the following two-line orbital elements,

1 25544U 98067A   17327.56661513  .00016717  00000-0  10270-3 0  9033
2 25544  51.6386 323.7955 0003862 142.8134 217.3286 15.54185280  6539
Epoch (UTC): 23 November 2017 13:35:55
Eccentricity: 0.0003862
inclination: 51.6386°
perigee height: 402 km
apogee height: 407 km
right ascension of ascending node: 323.7955°
argument of perigee: 142.8134°
revolutions per day: 15.54185280
mean anomaly at epoch: 217.3286°
orbit number at epoch: 653

The dashed part of the orbit path shows where the satellite is in the earth's shadow,  

DLR